owner,sensor,date,latitude,longitude,vertical_datum,sea_water_practical_salinity,qcFlag 
ENP,ioos.station.NOAA.NDBC:WWEF1:1,2019-01-01T00:00:00Z,25.2320,-80.9380,1.5,12.66,1111122 
ENP,ioos.station.NOAA.NDBC:WWEF1:1,2019-01-01T01:00:00Z,25.2320,-80.9380,1.5,12.66,1111122 
ENP,ioos.station.NOAA.NDBC:WWEF1:1,2019-01-01T02:00:00Z,25.2320,-80.9380,1.5,12.6,1111122 
ENP,ioos.station.NOAA.NDBC:WWEF1:1,2019-01-01T03:00:00Z,25.2320,-80.9380,1.5,12.58,1111122 
ENP,ioos.station.NOAA.NDBC:WWEF1:1,2019-01-01T04:00:00Z,25.2320,-80.9380,1.5,12.6,11111222 
ENP,ioos.station.NOAA.NDBC:WWEF1:1,2019-01-01T05:00:00Z,25.2320,-80.9380,1.5,12.56,1111122 
ENP,ioos.station.NOAA.NDBC:WWEF1:1,2019-01-01T06:00:00Z,25.2320,-80.9380,1.5,12.56,1111122 
ENP,ioos.station.NOAA.NDBC:WWEF1:1,2019-01-01T07:00:00Z,25.2320,-80.9380,1.5,12.56,1111122 
ENP,ioos.station.NOAA.NDBC:WWEF1:1,2019-01-01T08:00:00Z,25.2320,-80.9380,1.5,12.56,1111122 
ENP,ioos.station.NOAA.NDBC:WWEF1:1,2019-01-01T09:00:00Z,25.2320,-80.9380,1.5,12.56,1111122 
ENP,ioos.station.NOAA.NDBC:WWEF1:1,2019-01-01T10:00:00Z,25.2320,-80.9380,1.5,12.5,11111222 
ENP,ioos.station.NOAA.NDBC:WWEF1:1,2019-01-01T11:00:00Z,25.2320,-80.9380,1.5,12.52,1111122 
ENP,ioos.station.NOAA.NDBC:WWEF1:1,2019-01-01T12:00:00Z,25.2320,-80.9380,1.5,12.51,1111122 
ENP,ioos.station.NOAA.NDBC:WWEF1:1,2019-01-01T13:00:00Z,25.2320,-80.9380,1.5,12.49,1111122 
ENP,ioos.station.NOAA.NDBC:WWEF1:1,2019-01-01T14:00:00Z,25.2320,-80.9380,1.5,12.47,1111122 
ENP,ioos.station.NOAA.NDBC:WWEF1:1,2019-01-01T15:00:00Z,25.2320,-80.9380,1.5,12.49,1111122 
ENP,ioos.station.NOAA.NDBC:WWEF1:1,2019-01-01T16:00:00Z,25.2320,-80.9380,1.5,12.57,1111122 
ENP,ioos.station.NOAA.NDBC:WWEF1:1,2019-01-01T17:00:00Z,25.2320,-80.9380,1.5,12.56,1111122 
ENP,ioos.station.NOAA.NDBC:WWEF1:1,2019-01-01T18:00:00Z,25.2320,-80.9380,1.5,12.58,1111122 
ENP,ioos.station.NOAA.NDBC:WWEF1:1,2019-01-01T19:00:00Z,25.2320,-80.9380,1.5,12.54,1111122 
ENP,ioos.station.NOAA.NDBC:WWEF1:1,2019-01-01T20:00:00Z,25.2320,-80.9380,1.5,12.56,1111122 
ENP,ioos.station.NOAA.NDBC:WWEF1:1,2019-01-01T21:00:00Z,25.2320,-80.9380,1.5,12.56,1111122 
ENP,ioos.station.NOAA.NDBC:WWEF1:1,2019-01-01T22:00:00Z,25.2320,-80.9380,1.5,12.57,1111122 
ENP,ioos.station.NOAA.NDBC:WWEF1:1,2019-01-01T23:00:00Z,25.2320,-80.9380,1.5,12.59,1111122 
ENP,ioos.station.NOAA.NDBC:WWEF1:1,2019-01-02T00:00:00Z,25.2320,-80.9380,1.5,12.6,1111122 
ENP,ioos.station.NOAA.NDBC:WWEF1:1,2019-01-02T01:00:00Z,25.2320,-80.9380,1.5,12.58,1111122 
ENP,ioos.station.NOAA.NDBC:WWEF1:1,2019-01-02T02:00:00Z,25.2320,-80.9380,1.5,12.57,1111122 
ENP,ioos.station.NOAA.NDBC:WWEF1:1,2019-01-02T03:00:00Z,25.2320,-80.9380,1.5,12.55,1111122 
ENP,ioos.station.NOAA.NDBC:WWEF1:1,2019-01-02T04:00:00Z,25.2320,-80.9380,1.5,12.5,11111222 
ENP,ioos.station.NOAA.NDBC:WWEF1:1,2019-01-02T05:00:00Z,25.2320,-80.9380,1.5,12.53,1111122 
ENP,ioos.station.NOAA.NDBC:WWEF1:1,2019-01-02T06:00:00Z,25.2320,-80.9380,1.5,12.53,1111122 
ENP,ioos.station.NOAA.NDBC:WWEF1:1,2019-01-02T07:00:00Z,25.2320,-80.9380,1.5,12.54,1111122 
ENP,ioos.station.NOAA.NDBC:WWEF1:1,2019-01-02T08:00:00Z,25.2320,-80.9380,1.5,12.54,1111122 
ENP,ioos.station.NOAA.NDBC:WWEF1:1,2019-01-02T09:00:00Z,25.2320,-80.9380,1.5,12.54,1111122 
ENP,ioos.station.NOAA.NDBC:WWEF1:1,2019-01-02T10:00:00Z,25.2320,-80.9380,1.5,12.5,11111222 
ENP,ioos.station.NOAA.NDBC:WWEF1:1,2019-01-02T11:00:00Z,25.2320,-80.9380,1.5,12.55,1111122 
ENP,ioos.station.NOAA.NDBC:WWEF1:1,2019-01-02T12:00:00Z,25.2320,-80.9380,1.5,12.55,1111122 
ENP,ioos.station.NOAA.NDBC:WWEF1:1,2019-01-02T13:00:00Z,25.2320,-80.9380,1.5,12.56,1111122 
ENP,ioos.station.NOAA.NDBC:WWEF1:1,2019-01-02T14:00:00Z,25.2320,-80.9380,1.5,12.57,1111122 
ENP,ioos.station.NOAA.NDBC:WWEF1:1,2019-01-02T15:00:00Z,25.2320,-80.9380,1.5,12.6,1111122 
ENP,ioos.station.NOAA.NDBC:WWEF1:1,2019-01-02T16:00:00Z,25.2320,-80.9380,1.5,12.59,1111122 
ENP,ioos.station.NOAA.NDBC:WWEF1:1,2019-01-02T17:00:00Z,25.2320,-80.9380,1.5,12.55,1111122 
ENP,ioos.station.NOAA.NDBC:WWEF1:1,2019-01-02T18:00:00Z,25.2320,-80.9380,1.5,12.48,1111122 
ENP,ioos.station.NOAA.NDBC:WWEF1:1,2019-01-02T19:00:00Z,25.2320,-80.9380,1.5,12.68,1111122 
ENP,ioos.station.NOAA.NDBC:WWEF1:1,2019-01-02T20:00:00Z,25.2320,-80.9380,1.5,12.73,1111122 
ENP,ioos.station.NOAA.NDBC:WWEF1:1,2019-01-02T21:00:00Z,25.2320,-80.9380,1.5,12.69,1111122 
ENP,ioos.station.NOAA.NDBC:WWEF1:1,2019-01-02T22:00:00Z,25.2320,-80.9380,1.5,12.65,1111122 
ENP,ioos.station.NOAA.NDBC:WWEF1:1,2019-01-02T23:00:00Z,25.2320,-80.9380,1.5,12.65,1111122 
ENP,ioos.station.NOAA.NDBC:WWEF1:1,2019-01-03T00:00:00Z,25.2320,-80.9380,1.5,12.62,1111122 
ENP,ioos.station.NOAA.NDBC:WWEF1:1,2019-01-03T01:00:00Z,25.2320,-80.9380,1.5,12.6,1111122 
ENP,ioos.station.NOAA.NDBC:WWEF1:1,2019-01-03T02:00:00Z,25.2320,-80.9380,1.5,12.6,1111122 
ENP,ioos.station.NOAA.NDBC:WWEF1:1,2019-01-03T03:00:00Z,25.2320,-80.9380,1.5,12.58,1111122 
ENP,ioos.station.NOAA.NDBC:WWEF1:1,2019-01-03T04:00:00Z,25.2320,-80.9380,1.5,12.4,11111222 
ENP,ioos.station.NOAA.NDBC:WWEF1:1,2019-01-03T05:00:00Z,25.2320,-80.9380,1.5,12.28,1111122 
ENP,ioos.station.NOAA.NDBC:WWEF1:1,2019-01-03T06:00:00Z,25.2320,-80.9380,1.5,12.25,1111122 
ENP,ioos.station.NOAA.NDBC:WWEF1:1,2019-01-03T07:00:00Z,25.2320,-80.9380,1.5,12.23,1111122 
ENP,ioos.station.NOAA.NDBC:WWEF1:1,2019-01-03T08:00:00Z,25.2320,-80.9380,1.5,12.23,1111122 
ENP,ioos.station.NOAA.NDBC:WWEF1:1,2019-01-03T09:00:00Z,25.2320,-80.9380,1.5,12.23,1111122 
ENP,ioos.station.NOAA.NDBC:WWEF1:1,2019-01-03T10:00:00Z,25.2320,-80.9380,1.5,12.25,1111122 
ENP,ioos.station.NOAA.NDBC:WWEF1:1,2019-01-03T11:00:00Z,25.2320,-80.9380,1.5,12.31,1111122 
ENP,ioos.station.NOAA.NDBC:WWEF1:1,2019-01-03T12:00:00Z,25.2320,-80.9380,1.5,12.34,1111122 
ENP,ioos.station.NOAA.NDBC:WWEF1:1,2019-01-03T13:00:00Z,25.2320,-80.9380,1.5,12.34,1111122 
ENP,ioos.station.NOAA.NDBC:WWEF1:1,2019-01-03T14:00:00Z,25.2320,-80.9380,1.5,12.32,1111122 
ENP,ioos.station.NOAA.NDBC:WWEF1:1,2019-01-03T15:00:00Z,25.2320,-80.9380,1.5,12.3,1111122 
ENP,ioos.station.NOAA.NDBC:WWEF1:1,2019-01-03T16:00:00Z,25.2320,-80.9380,1.5,12.3,1111122 
ENP,ioos.station.NOAA.NDBC:WWEF1:1,2019-01-03T17:00:00Z,25.2320,-80.9380,1.5,12.29,1111122 
ENP,ioos.station.NOAA.NDBC:WWEF1:1,2019-01-03T18:00:00Z,25.2320,-80.9380,1.5,12.28,1111122 
ENP,ioos.station.NOAA.NDBC:WWEF1:1,2019-01-03T19:00:00Z,25.2320,-80.9380,1.5,12.29,1111122 
ENP,ioos.station.NOAA.NDBC:WWEF1:1,2019-01-03T20:00:00Z,25.2320,-80.9380,1.5,12.31,1111122 
ENP,ioos.station.NOAA.NDBC:WWEF1:1,2019-01-03T21:00:00Z,25.2320,-80.9380,1.5,12.31,1111122 
ENP,ioos.station.NOAA.NDBC:WWEF1:1,2019-01-03T22:00:00Z,25.2320,-80.9380,1.5,12.34,1111122 
ENP,ioos.station.NOAA.NDBC:WWEF1:1,2019-01-03T23:00:00Z,25.2320,-80.9380,1.5,12.32,1111122 
ENP,ioos.station.NOAA.NDBC:WWEF1:1,2019-01-04T00:00:00Z,25.2320,-80.9380,1.5,12.34,1111122 
ENP,ioos.station.NOAA.NDBC:WWEF1:1,2019-01-04T01:00:00Z,25.2320,-80.9380,1.5,12.36,1111122 
ENP,ioos.station.NOAA.NDBC:WWEF1:1,2019-01-04T02:00:00Z,25.2320,-80.9380,1.5,12.37,1111122 
ENP,ioos.station.NOAA.NDBC:WWEF1:1,2019-01-04T03:00:00Z,25.2320,-80.9380,1.5,12.42,1111122 
ENP,ioos.station.NOAA.NDBC:WWEF1:1,2019-01-04T04:00:00Z,25.2320,-80.9380,1.5,12.5,11111222 
ENP,ioos.station.NOAA.NDBC:WWEF1:1,2019-01-04T05:00:00Z,25.2320,-80.9380,1.5,12.52,1111122 
ENP,ioos.station.NOAA.NDBC:WWEF1:1,2019-01-04T06:00:00Z,25.2320,-80.9380,1.5,12.5,1111122 
ENP,ioos.station.NOAA.NDBC:WWEF1:1,2019-01-04T07:00:00Z,25.2320,-80.9380,1.5,12.5,1111122 
ENP,ioos.station.NOAA.NDBC:WWEF1:1,2019-01-04T08:00:00Z,25.2320,-80.9380,1.5,12.51,1111122 
ENP,ioos.station.NOAA.NDBC:WWEF1:1,2019-01-04T09:00:00Z,25.2320,-80.9380,1.5,12.51,1111122 
ENP,ioos.station.NOAA.NDBC:WWEF1:1,2019-01-04T10:00:00Z,25.2320,-80.9380,1.5,12.51,1111122 
ENP,ioos.station.NOAA.NDBC:WWEF1:1,2019-01-04T11:00:00Z,25.2320,-80.9380,1.5,12.51,1111122 
ENP,ioos.station.NOAA.NDBC:WWEF1:1,2019-01-04T12:00:00Z,25.2320,-80.9380,1.5,12.51,1111122 
ENP,ioos.station.NOAA.NDBC:WWEF1:1,2019-01-04T13:00:00Z,25.2320,-80.9380,1.5,12.53,1111122 
ENP,ioos.station.NOAA.NDBC:WWEF1:1,2019-01-04T14:00:00Z,25.2320,-80.9380,1.5,12.58,1111122 
ENP,ioos.station.NOAA.NDBC:WWEF1:1,2019-01-04T15:00:00Z,25.2320,-80.9380,1.5,12.62,1111122 
ENP,ioos.station.NOAA.NDBC:WWEF1:1,2019-01-04T16:00:00Z,25.2320,-80.9380,1.5,12.6,1111122 
ENP,ioos.station.NOAA.NDBC:WWEF1:1,2019-01-04T17:00:00Z,25.2320,-80.9380,1.5,12.56,1111122 
ENP,ioos.station.NOAA.NDBC:WWEF1:1,2019-01-04T18:00:00Z,25.2320,-80.9380,1.5,12.57,1111122 
ENP,ioos.station.NOAA.NDBC:WWEF1:1,2019-01-04T19:00:00Z,25.2320,-80.9380,1.5,12.66,1111122 
ENP,ioos.station.NOAA.NDBC:WWEF1:1,2019-01-04T20:00:00Z,25.2320,-80.9380,1.5,12.69,1111122 
ENP,ioos.station.NOAA.NDBC:WWEF1:1,2019-01-04T21:00:00Z,25.2320,-80.9380,1.5,12.7,1111122 
ENP,ioos.station.NOAA.NDBC:WWEF1:1,2019-01-04T22:00:00Z,25.2320,-80.9380,1.5,12.7,1111122 
ENP,ioos.station.NOAA.NDBC:WWEF1:1,2019-01-04T23:00:00Z,25.2320,-80.9380,1.5,12.7,1111122 
ENP,ioos.station.NOAA.NDBC:WWEF1:1,2019-01-05T00:00:00Z,25.2320,-80.9380,1.5,12.71,1111122 
ENP,ioos.station.NOAA.NDBC:WWEF1:1,2019-01-05T01:00:00Z,25.2320,-80.9380,1.5,12.71,1111122 
ENP,ioos.station.NOAA.NDBC:WWEF1:1,2019-01-05T02:00:00Z,25.2320,-80.9380,1.5,12.71,1111122 
ENP,ioos.station.NOAA.NDBC:WWEF1:1,2019-01-05T03:00:00Z,25.2320,-80.9380,1.5,12.73,1111122 
ENP,ioos.station.NOAA.NDBC:WWEF1:1,2019-01-05T04:00:00Z,25.2320,-80.9380,1.5,12.8,11111222 
ENP,ioos.station.NOAA.NDBC:WWEF1:1,2019-01-05T05:00:00Z,25.2320,-80.9380,1.5,12.75,1111122 
ENP,ioos.station.NOAA.NDBC:WWEF1:1,2019-01-05T06:00:00Z,25.2320,-80.9380,1.5,12.79,1111122 
ENP,ioos.station.NOAA.NDBC:WWEF1:1,2019-01-05T07:00:00Z,25.2320,-80.9380,1.5,12.79,1111122 
ENP,ioos.station.NOAA.NDBC:WWEF1:1,2019-01-05T08:00:00Z,25.2320,-80.9380,1.5,12.8,1111122 
ENP,ioos.station.NOAA.NDBC:WWEF1:1,2019-01-05T11:00:00Z,25.2320,-80.9380,1.5,12.8,11111222 
ENP,ioos.station.NOAA.NDBC:WWEF1:1,2019-01-05T12:00:00Z,25.2320,-80.9380,1.5,12.8,11111222 
ENP,ioos.station.NOAA.NDBC:WWEF1:1,2019-01-05T13:00:00Z,25.2320,-80.9380,1.5,12.98,1111122 
ENP,ioos.station.NOAA.NDBC:WWEF1:1,2019-01-05T14:00:00Z,25.2320,-80.9380,1.5,13.01,1111122 
ENP,ioos.station.NOAA.NDBC:WWEF1:1,2019-01-05T15:00:00Z,25.2320,-80.9380,1.5,13.05,1111122 
ENP,ioos.station.NOAA.NDBC:WWEF1:1,2019-01-05T16:00:00Z,25.2320,-80.9380,1.5,13.14,1111122 
ENP,ioos.station.NOAA.NDBC:WWEF1:1,2019-01-05T17:00:00Z,25.2320,-80.9380,1.5,13.18,1111122 
ENP,ioos.station.NOAA.NDBC:WWEF1:1,2019-01-05T18:00:00Z,25.2320,-80.9380,1.5,13.24,1111122 
ENP,ioos.station.NOAA.NDBC:WWEF1:1,2019-01-05T19:00:00Z,25.2320,-80.9380,1.5,13.25,1111122 
ENP,ioos.station.NOAA.NDBC:WWEF1:1,2019-01-05T20:00:00Z,25.2320,-80.9380,1.5,13.26,1111122 
ENP,ioos.station.NOAA.NDBC:WWEF1:1,2019-01-05T21:00:00Z,25.2320,-80.9380,1.5,13.29,1111122 
ENP,ioos.station.NOAA.NDBC:WWEF1:1,2019-01-05T22:00:00Z,25.2320,-80.9380,1.5,13.32,1111122 
ENP,ioos.station.NOAA.NDBC:WWEF1:1,2019-01-05T23:00:00Z,25.2320,-80.9380,1.5,13.36,1111122 
ENP,ioos.station.NOAA.NDBC:WWEF1:1,2019-01-06T00:00:00Z,25.2320,-80.9380,1.5,13.39,1111122 
ENP,ioos.station.NOAA.NDBC:WWEF1:1,2019-01-06T01:00:00Z,25.2320,-80.9380,1.5,13.4,11111222 
ENP,ioos.station.NOAA.NDBC:WWEF1:1,2019-01-06T02:00:00Z,25.2320,-80.9380,1.5,13.42,1111122 
ENP,ioos.station.NOAA.NDBC:WWEF1:1,2019-01-06T03:00:00Z,25.2320,-80.9380,1.5,13.44,1111122 
ENP,ioos.station.NOAA.NDBC:WWEF1:1,2019-01-06T04:00:00Z,25.2320,-80.9380,1.5,13.5,11111222 
ENP,ioos.station.NOAA.NDBC:WWEF1:1,2019-01-06T05:00:00Z,25.2320,-80.9380,1.5,13.45,1111122 
ENP,ioos.station.NOAA.NDBC:WWEF1:1,2019-01-06T06:00:00Z,25.2320,-80.9380,1.5,13.44,1111122 
ENP,ioos.station.NOAA.NDBC:WWEF1:1,2019-01-06T07:00:00Z,25.2320,-80.9380,1.5,13.43,1111122 
ENP,ioos.station.NOAA.NDBC:WWEF1:1,2019-01-06T08:00:00Z,25.2320,-80.9380,1.5,13.44,1111122 
ENP,ioos.station.NOAA.NDBC:WWEF1:1,2019-01-06T09:00:00Z,25.2320,-80.9380,1.5,13.48,1111122 
ENP,ioos.station.NOAA.NDBC:WWEF1:1,2019-01-06T10:00:00Z,25.2320,-80.9380,1.5,13.6,11111222 
ENP,ioos.station.NOAA.NDBC:WWEF1:1,2019-01-06T11:00:00Z,25.2320,-80.9380,1.5,13.61,1111122 
ENP,ioos.station.NOAA.NDBC:WWEF1:1,2019-01-06T12:00:00Z,25.2320,-80.9380,1.5,13.65,1111122 
ENP,ioos.station.NOAA.NDBC:WWEF1:1,2019-01-06T13:00:00Z,25.2320,-80.9380,1.5,13.67,1111122 
ENP,ioos.station.NOAA.NDBC:WWEF1:1,2019-01-06T14:00:00Z,25.2320,-80.9380,1.5,13.68,1111122 
ENP,ioos.station.NOAA.NDBC:WWEF1:1,2019-01-06T15:00:00Z,25.2320,-80.9380,1.5,13.68,1111122 
ENP,ioos.station.NOAA.NDBC:WWEF1:1,2019-01-06T16:00:00Z,25.2320,-80.9380,1.5,13.69,1111122 
ENP,ioos.station.NOAA.NDBC:WWEF1:1,2019-01-06T17:00:00Z,25.2320,-80.9380,1.5,13.7,1111122 
ENP,ioos.station.NOAA.NDBC:WWEF1:1,2019-01-06T18:00:00Z,25.2320,-80.9380,1.5,13.7,1111122 
ENP,ioos.station.NOAA.NDBC:WWEF1:1,2019-01-06T19:00:00Z,25.2320,-80.9380,1.5,13.69,1111122 
ENP,ioos.station.NOAA.NDBC:WWEF1:1,2019-01-06T20:00:00Z,25.2320,-80.9380,1.5,13.69,1111122 
ENP,ioos.station.NOAA.NDBC:WWEF1:1,2019-01-06T21:00:00Z,25.2320,-80.9380,1.5,13.69,1111122 
ENP,ioos.station.NOAA.NDBC:WWEF1:1,2019-01-06T22:00:00Z,25.2320,-80.9380,1.5,13.68,1111122 
ENP,ioos.station.NOAA.NDBC:WWEF1:1,2019-01-06T23:00:00Z,25.2320,-80.9380,1.5,13.58,1111122 
ENP,ioos.station.NOAA.NDBC:WWEF1:1,2019-01-07T00:00:00Z,25.2320,-80.9380,1.5,13.45,1111122 
ENP,ioos.station.NOAA.NDBC:WWEF1:1,2019-01-07T01:00:00Z,25.2320,-80.9380,1.5,13.4,1111122 
ENP,ioos.station.NOAA.NDBC:WWEF1:1,2019-01-07T02:00:00Z,25.2320,-80.9380,1.5,13.4,1111122 
ENP,ioos.station.NOAA.NDBC:WWEF1:1,2019-01-07T03:00:00Z,25.2320,-80.9380,1.5,13.42,1111122 
ENP,ioos.station.NOAA.NDBC:WWEF1:1,2019-01-07T04:00:00Z,25.2320,-80.9380,1.5,13.42,1111122 
ENP,ioos.station.NOAA.NDBC:WWEF1:1,2019-01-07T05:00:00Z,25.2320,-80.9380,1.5,13.38,1111122 
ENP,ioos.station.NOAA.NDBC:WWEF1:1,2019-01-07T06:00:00Z,25.2320,-80.9380,1.5,13.4,11111222 
ENP,ioos.station.NOAA.NDBC:WWEF1:1,2019-01-07T07:00:00Z,25.2320,-80.9380,1.5,13.5,11111222 
ENP,ioos.station.NOAA.NDBC:WWEF1:1,2019-01-07T08:00:00Z,25.2320,-80.9380,1.5,13.59,1111122 
ENP,ioos.station.NOAA.NDBC:WWEF1:1,2019-01-07T09:00:00Z,25.2320,-80.9380,1.5,13.62,1111122 
ENP,ioos.station.NOAA.NDBC:WWEF1:1,2019-01-07T10:00:00Z,25.2320,-80.9380,1.5,13.66,1111122 
ENP,ioos.station.NOAA.NDBC:WWEF1:1,2019-01-07T11:00:00Z,25.2320,-80.9380,1.5,13.69,1111122 
ENP,ioos.station.NOAA.NDBC:WWEF1:1,2019-01-07T12:00:00Z,25.2320,-80.9380,1.5,13.7,1111122 
ENP,ioos.station.NOAA.NDBC:WWEF1:1,2019-01-07T13:00:00Z,25.2320,-80.9380,1.5,13.7,1111122 
ENP,ioos.station.NOAA.NDBC:WWEF1:1,2019-01-07T14:00:00Z,25.2320,-80.9380,1.5,13.71,1111122 
ENP,ioos.station.NOAA.NDBC:WWEF1:1,2019-01-07T15:00:00Z,25.2320,-80.9380,1.5,13.68,1111122 
ENP,ioos.station.NOAA.NDBC:WWEF1:1,2019-01-07T16:00:00Z,25.2320,-80.9380,1.5,13.63,1111122 
ENP,ioos.station.NOAA.NDBC:WWEF1:1,2019-01-07T17:00:00Z,25.2320,-80.9380,1.5,13.62,1111122 
ENP,ioos.station.NOAA.NDBC:WWEF1:1,2019-01-07T18:00:00Z,25.2320,-80.9380,1.5,13.6,1111122 
ENP,ioos.station.NOAA.NDBC:WWEF1:1,2019-01-07T19:00:00Z,25.2320,-80.9380,1.5,13.57,1111122 
ENP,ioos.station.NOAA.NDBC:WWEF1:1,2019-01-07T20:00:00Z,25.2320,-80.9380,1.5,13.55,1111122 
ENP,ioos.station.NOAA.NDBC:WWEF1:1,2019-01-07T21:00:00Z,25.2320,-80.9380,1.5,13.48,1111122 
ENP,ioos.station.NOAA.NDBC:WWEF1:1,2019-01-07T22:00:00Z,25.2320,-80.9380,1.5,13.44,1111122 
ENP,ioos.station.NOAA.NDBC:WWEF1:1,2019-01-07T23:00:00Z,25.2320,-80.9380,1.5,13.42,1111122 
ENP,ioos.station.NOAA.NDBC:WWEF1:1,2019-01-08T00:00:00Z,25.2320,-80.9380,1.5,13.4,1111122 
ENP,ioos.station.NOAA.NDBC:WWEF1:1,2019-01-08T01:00:00Z,25.2320,-80.9380,1.5,13.38,1111122 
ENP,ioos.station.NOAA.NDBC:WWEF1:1,2019-01-08T02:00:00Z,25.2320,-80.9380,1.5,13.36,1111122 
ENP,ioos.station.NOAA.NDBC:WWEF1:1,2019-01-08T03:00:00Z,25.2320,-80.9380,1.5,13.36,1111122 
ENP,ioos.station.NOAA.NDBC:WWEF1:1,2019-01-08T04:00:00Z,25.2320,-80.9380,1.5,13.4,11111222 
ENP,ioos.station.NOAA.NDBC:WWEF1:1,2019-01-08T05:00:00Z,25.2320,-80.9380,1.5,13.37,1111122 
ENP,ioos.station.NOAA.NDBC:WWEF1:1,2019-01-08T06:00:00Z,25.2320,-80.9380,1.5,13.38,1111122 
ENP,ioos.station.NOAA.NDBC:WWEF1:1,2019-01-08T07:00:00Z,25.2320,-80.9380,1.5,13.39,1111122 
ENP,ioos.station.NOAA.NDBC:WWEF1:1,2019-01-08T08:00:00Z,25.2320,-80.9380,1.5,13.39,1111122 
ENP,ioos.station.NOAA.NDBC:WWEF1:1,2019-01-08T09:00:00Z,25.2320,-80.9380,1.5,13.37,1111122 
ENP,ioos.station.NOAA.NDBC:WWEF1:1,2019-01-08T10:00:00Z,25.2320,-80.9380,1.5,13.31,1111122 
ENP,ioos.station.NOAA.NDBC:WWEF1:1,2019-01-08T11:00:00Z,25.2320,-80.9380,1.5,13.26,1111122 
ENP,ioos.station.NOAA.NDBC:WWEF1:1,2019-01-08T12:00:00Z,25.2320,-80.9380,1.5,13.23,1111122 
ENP,ioos.station.NOAA.NDBC:WWEF1:1,2019-01-08T13:00:00Z,25.2320,-80.9380,1.5,13.18,1111122 
ENP,ioos.station.NOAA.NDBC:WWEF1:1,2019-01-08T14:00:00Z,25.2320,-80.9380,1.5,13.15,1111122 
ENP,ioos.station.NOAA.NDBC:WWEF1:1,2019-01-08T15:00:00Z,25.2320,-80.9380,1.5,13.15,1111122 
ENP,ioos.station.NOAA.NDBC:WWEF1:1,2019-01-08T16:00:00Z,25.2320,-80.9380,1.5,13.21,1111122 
ENP,ioos.station.NOAA.NDBC:WWEF1:1,2019-01-08T17:00:00Z,25.2320,-80.9380,1.5,13.23,1111122 
ENP,ioos.station.NOAA.NDBC:WWEF1:1,2019-01-08T18:00:00Z,25.2320,-80.9380,1.5,13.23,1111122 
ENP,ioos.station.NOAA.NDBC:WWEF1:1,2019-01-08T19:00:00Z,25.2320,-80.9380,1.5,13.21,1111122 
ENP,ioos.station.NOAA.NDBC:WWEF1:1,2019-01-08T20:00:00Z,25.2320,-80.9380,1.5,13.19,1111122 
ENP,ioos.station.NOAA.NDBC:WWEF1:1,2019-01-08T21:00:00Z,25.2320,-80.9380,1.5,13.18,1111122 
ENP,ioos.station.NOAA.NDBC:WWEF1:1,2019-01-08T22:00:00Z,25.2320,-80.9380,1.5,13.17,1111122 
ENP,ioos.station.NOAA.NDBC:WWEF1:1,2019-01-08T23:00:00Z,25.2320,-80.9380,1.5,13.17,1111122 
ENP,ioos.station.NOAA.NDBC:WWEF1:1,2019-01-09T00:00:00Z,25.2320,-80.9380,1.5,13.17,1111122 
ENP,ioos.station.NOAA.NDBC:WWEF1:1,2019-01-09T01:00:00Z,25.2320,-80.9380,1.5,13.17,1111122 
ENP,ioos.station.NOAA.NDBC:WWEF1:1,2019-01-09T02:00:00Z,25.2320,-80.9380,1.5,13.17,1111122 
ENP,ioos.station.NOAA.NDBC:WWEF1:1,2019-01-09T03:00:00Z,25.2320,-80.9380,1.5,13.17,1111122 
ENP,ioos.station.NOAA.NDBC:WWEF1:1,2019-01-09T04:00:00Z,25.2320,-80.9380,1.5,13.17,1111122 
ENP,ioos.station.NOAA.NDBC:WWEF1:1,2019-01-09T05:00:00Z,25.2320,-80.9380,1.5,13.17,1111122 
ENP,ioos.station.NOAA.NDBC:WWEF1:1,2019-01-09T06:00:00Z,25.2320,-80.9380,1.5,13.17,1111122 
ENP,ioos.station.NOAA.NDBC:WWEF1:1,2019-01-09T07:00:00Z,25.2320,-80.9380,1.5,13.17,1111122 
ENP,ioos.station.NOAA.NDBC:WWEF1:1,2019-01-09T08:00:00Z,25.2320,-80.9380,1.5,13.17,1111122 
ENP,ioos.station.NOAA.NDBC:WWEF1:1,2019-01-09T09:00:00Z,25.2320,-80.9380,1.5,13.26,1111122 
ENP,ioos.station.NOAA.NDBC:WWEF1:1,2019-01-09T10:00:00Z,25.2320,-80.9380,1.5,13.5,11111222 
ENP,ioos.station.NOAA.NDBC:WWEF1:1,2019-01-09T11:00:00Z,25.2320,-80.9380,1.5,13.63,1111122 
ENP,ioos.station.NOAA.NDBC:WWEF1:1,2019-01-09T12:00:00Z,25.2320,-80.9380,1.5,13.8,1111122 
ENP,ioos.station.NOAA.NDBC:WWEF1:1,2019-01-09T13:00:00Z,25.2320,-80.9380,1.5,13.94,1111122 
ENP,ioos.station.NOAA.NDBC:WWEF1:1,2019-01-09T14:00:00Z,25.2320,-80.9380,1.5,14.1,11111222 
ENP,ioos.station.NOAA.NDBC:WWEF1:1,2019-01-09T15:00:00Z,25.2320,-80.9380,1.5,14.1,11111222 
ENP,ioos.station.NOAA.NDBC:WWEF1:1,2019-01-09T16:00:00Z,25.2320,-80.9380,1.5,14.17,1111122 
ENP,ioos.station.NOAA.NDBC:WWEF1:1,2019-01-09T17:00:00Z,25.2320,-80.9380,1.5,14.09,1111122 
ENP,ioos.station.NOAA.NDBC:WWEF1:1,2019-01-09T18:00:00Z,25.2320,-80.9380,1.5,13.98,1111122 
ENP,ioos.station.NOAA.NDBC:WWEF1:1,2019-01-09T19:00:00Z,25.2320,-80.9380,1.5,13.89,1111122 
ENP,ioos.station.NOAA.NDBC:WWEF1:1,2019-01-09T20:00:00Z,25.2320,-80.9380,1.5,13.84,1111122 
ENP,ioos.station.NOAA.NDBC:WWEF1:1,2019-01-09T21:00:00Z,25.2320,-80.9380,1.5,13.79,1111122 
ENP,ioos.station.NOAA.NDBC:WWEF1:1,2019-01-09T22:00:00Z,25.2320,-80.9380,1.5,13.78,1111122 
ENP,ioos.station.NOAA.NDBC:WWEF1:1,2019-01-09T23:00:00Z,25.2320,-80.9380,1.5,13.78,1111122 
ENP,ioos.station.NOAA.NDBC:WWEF1:1,2019-01-10T00:00:00Z,25.2320,-80.9380,1.5,13.77,1111122 
ENP,ioos.station.NOAA.NDBC:WWEF1:1,2019-01-10T01:00:00Z,25.2320,-80.9380,1.5,13.76,1111122 
ENP,ioos.station.NOAA.NDBC:WWEF1:1,2019-01-10T02:00:00Z,25.2320,-80.9380,1.5,13.76,1111122 
ENP,ioos.station.NOAA.NDBC:WWEF1:1,2019-01-10T03:00:00Z,25.2320,-80.9380,1.5,13.76,1111122 
ENP,ioos.station.NOAA.NDBC:WWEF1:1,2019-01-10T04:00:00Z,25.2320,-80.9380,1.5,13.7,11111222 
ENP,ioos.station.NOAA.NDBC:WWEF1:1,2019-01-10T05:00:00Z,25.2320,-80.9380,1.5,13.74,1111122 
ENP,ioos.station.NOAA.NDBC:WWEF1:1,2019-01-10T06:00:00Z,25.2320,-80.9380,1.5,13.74,1111122 
ENP,ioos.station.NOAA.NDBC:WWEF1:1,2019-01-10T07:00:00Z,25.2320,-80.9380,1.5,13.73,1111122 
ENP,ioos.station.NOAA.NDBC:WWEF1:1,2019-01-10T08:00:00Z,25.2320,-80.9380,1.5,13.72,1111122 
ENP,ioos.station.NOAA.NDBC:WWEF1:1,2019-01-10T09:00:00Z,25.2320,-80.9380,1.5,13.61,1111122 
ENP,ioos.station.NOAA.NDBC:WWEF1:1,2019-01-10T10:00:00Z,25.2320,-80.9380,1.5,13.6,11111222 
ENP,ioos.station.NOAA.NDBC:WWEF1:1,2019-01-10T11:00:00Z,25.2320,-80.9380,1.5,13.53,1111122 
ENP,ioos.station.NOAA.NDBC:WWEF1:1,2019-01-10T12:00:00Z,25.2320,-80.9380,1.5,13.55,1111122 
ENP,ioos.station.NOAA.NDBC:WWEF1:1,2019-01-10T13:00:00Z,25.2320,-80.9380,1.5,13.61,1111122 
ENP,ioos.station.NOAA.NDBC:WWEF1:1,2019-01-10T14:00:00Z,25.2320,-80.9380,1.5,13.65,1111122 
ENP,ioos.station.NOAA.NDBC:WWEF1:1,2019-01-10T15:00:00Z,25.2320,-80.9380,1.5,13.68,1111122 
ENP,ioos.station.NOAA.NDBC:WWEF1:1,2019-01-10T16:00:00Z,25.2320,-80.9380,1.5,13.71,1111122 
ENP,ioos.station.NOAA.NDBC:WWEF1:1,2019-01-10T17:00:00Z,25.2320,-80.9380,1.5,13.74,1111122 
ENP,ioos.station.NOAA.NDBC:WWEF1:1,2019-01-10T18:00:00Z,25.2320,-80.9380,1.5,13.78,1111122 
ENP,ioos.station.NOAA.NDBC:WWEF1:1,2019-01-10T19:00:00Z,25.2320,-80.9380,1.5,13.79,1111122 
ENP,ioos.station.NOAA.NDBC:WWEF1:1,2019-01-10T20:00:00Z,25.2320,-80.9380,1.5,13.8,1111122 
ENP,ioos.station.NOAA.NDBC:WWEF1:1,2019-01-10T21:00:00Z,25.2320,-80.9380,1.5,13.8,1111122 
ENP,ioos.station.NOAA.NDBC:WWEF1:1,2019-01-10T22:00:00Z,25.2320,-80.9380,1.5,13.8,1111122 
ENP,ioos.station.NOAA.NDBC:WWEF1:1,2019-01-10T23:00:00Z,25.2320,-80.9380,1.5,13.8,1111122 
ENP,ioos.station.NOAA.NDBC:WWEF1:1,2019-01-11T00:00:00Z,25.2320,-80.9380,1.5,13.79,1111122 
ENP,ioos.station.NOAA.NDBC:WWEF1:1,2019-01-11T01:00:00Z,25.2320,-80.9380,1.5,13.78,1111122 
ENP,ioos.station.NOAA.NDBC:WWEF1:1,2019-01-11T02:00:00Z,25.2320,-80.9380,1.5,13.78,1111122 
ENP,ioos.station.NOAA.NDBC:WWEF1:1,2019-01-11T03:00:00Z,25.2320,-80.9380,1.5,13.78,1111122 
ENP,ioos.station.NOAA.NDBC:WWEF1:1,2019-01-11T04:00:00Z,25.2320,-80.9380,1.5,13.8,11111222 
ENP,ioos.station.NOAA.NDBC:WWEF1:1,2019-01-11T05:00:00Z,25.2320,-80.9380,1.5,13.78,1111122 
ENP,ioos.station.NOAA.NDBC:WWEF1:1,2019-01-11T06:00:00Z,25.2320,-80.9380,1.5,13.78,1111122 
ENP,ioos.station.NOAA.NDBC:WWEF1:1,2019-01-11T07:00:00Z,25.2320,-80.9380,1.5,13.84,1111122 
ENP,ioos.station.NOAA.NDBC:WWEF1:1,2019-01-11T08:00:00Z,25.2320,-80.9380,1.5,13.9,1111122 
ENP,ioos.station.NOAA.NDBC:WWEF1:1,2019-01-11T09:00:00Z,25.2320,-80.9380,1.5,13.94,1111122 
ENP,ioos.station.NOAA.NDBC:WWEF1:1,2019-01-11T10:00:00Z,25.2320,-80.9380,1.5,14.0,11111222 
ENP,ioos.station.NOAA.NDBC:WWEF1:1,2019-01-11T11:00:00Z,25.2320,-80.9380,1.5,13.99,1111122 
ENP,ioos.station.NOAA.NDBC:WWEF1:1,2019-01-11T12:00:00Z,25.2320,-80.9380,1.5,14.0,1111122 
ENP,ioos.station.NOAA.NDBC:WWEF1:1,2019-01-11T13:00:00Z,25.2320,-80.9380,1.5,14.02,1111122 
ENP,ioos.station.NOAA.NDBC:WWEF1:1,2019-01-11T14:00:00Z,25.2320,-80.9380,1.5,14.03,1111122 
ENP,ioos.station.NOAA.NDBC:WWEF1:1,2019-01-11T15:00:00Z,25.2320,-80.9380,1.5,14.04,1111122 
ENP,ioos.station.NOAA.NDBC:WWEF1:1,2019-01-11T16:00:00Z,25.2320,-80.9380,1.5,14.04,1111122 
ENP,ioos.station.NOAA.NDBC:WWEF1:1,2019-01-11T17:00:00Z,25.2320,-80.9380,1.5,14.05,1111122 
ENP,ioos.station.NOAA.NDBC:WWEF1:1,2019-01-11T18:00:00Z,25.2320,-80.9380,1.5,14.06,1111122 
ENP,ioos.station.NOAA.NDBC:WWEF1:1,2019-01-11T19:00:00Z,25.2320,-80.9380,1.5,14.06,1111122 
ENP,ioos.station.NOAA.NDBC:WWEF1:1,2019-01-11T20:00:00Z,25.2320,-80.9380,1.5,14.06,1111122 
ENP,ioos.station.NOAA.NDBC:WWEF1:1,2019-01-11T21:00:00Z,25.2320,-80.9380,1.5,14.02,1111122 